COSMOS 249 DEB, 14410

Orbit data source: Space-Track

COSMOS 249 DEB, 14410 is space debris in LEO originally from a launch on Sun, 20 Oct 1968 UTC launched from the Tyuratam Missile And Space Complex (TTMTR). Debris objects in space refer to the collection of defunct objects orbiting the Earth. Examples of debris include non-operational satellites, rocket bodies, and fragments generated from explosions, collisions, or faulty payload assembly.

Loading next visibility...
Identifier
14410, 1968-091CL
Orbit
LEO
Country
Flag of CISCIS
Related business
Manufacturer
Unknown
Mission
Spacecraft
Bus & Motor
Unknown
Mass
Unknown
Launch date (UTC)
1968-10-20 (57 years ago)
Launch vehicle
Unknown
Launch site
Tyuratam Missile And Space Complex (TTMTR)
Object type
Payload
Rocket body
Debris
Shape & HBR
Unknown shape, 0.1 m
Radar Cross Section
Small (<0.1 m²)

Expand to show TLE details & history
Last TLE update: 1 week ago

TLE from 1 week ago
0 COSMOS 249 DEB
1 14410U 68091CL  25332.39471377  .00015634  00000-0  56556-2 0  9998
2 14410  62.2042 115.1814 0315245 233.3485 155.6903 14.09488848 75822
Epoch: 2025-11-28T09:28Z
TLE epoch observation values (Epoch: 2025-11-28T09:28:23.269Z)
Latitude
26.71122°
Longitude
-79.15169°
Altitude
1,072.336 km
Speed
7.212 km/s
True Right ascension
08h 41m 55s
True Declination
26° 34' 45"
Sunlit
Object was in daylight at epoch
Visualization orbit readout
Latitude
Unknown
Longitude
Unknown
Altitude
Unknown
Speed
Unknown
Apparent Right ascension
Unknown
Apparent Declination
Unknown
Sunlit
N/A
Visualization observer readout
Local Sidereal Time
07:21:46
Azimuth
Unknown
Elevation
Unknown
Doppler factor
Unknown
Orbital elements
Apogee altitude
1,088.248 km
Perigee altitude
631.886 km
Semi-major axis
7,238.204 km
Eccentricity
0.03152
Inclination
62.2042°
RAAN
115.1814°
Arg. of periapsis
233.3485°
True anomaly
157.12566°
Mean anomaly
155.6903°
Eccentric anomaly
156.41304°
Mean motion
3.5245 °/min
Orbital period
102.14 mins
BSTAR
0.0056556
Loading maneuver chart data...
Computing Atmospheric mass density...

Documentation

Showing up to 5 results
|